[[{"header":{"parameterUnit":"m.s-1","parameterCategory":1,"la1":30.2992,"la2":30.254,"lo1":-89.0895,"lo2":-89.0443,"dy":0.0025,"dx":0.0025,"nx":19,"ny":19,"refTime":"2026-03-30T03:00:00:Z","depth":0,"parameterNumber":2,"parameterNumberName":"U-component_of_WINDS"},"data":[0,0,0,-5.3004,-5.3007,-5.3136,-5.3137,-5.3303,-5.3305,0,0,0,0,0,0,0,0,0,0,0,-5.2967,-5.2968,-5.3004,-5.3008,-5.3136,-5.3137,-5.3303,-5.3305,0,0,0,0,0,0,0,0,0,0,0,-5.2966,-5.2967,-5.2969,-5.3008,-5.3136,-5.3137,-5.3302,-5.3205,0,0,0,0,0,0,0,0,0,0,-5.3079,-5.3044,-5.2967,-5.2969,-5.3009,-5.3136,-5.3137,-5.32,-5.3211,-5.3245,0,-5.3275,0,-5.3293,-5.3316,-5.3316,0,0,0,-5.3007,-5.3035,-5.307,-5.2969,-5.301,-5.3136,-5.3078,-5.3206,-5.3218,-5.3259,-5.3278,-5.3284,-5.3296,-5.3317,-5.3318,-5.3516,-5.3517,0,0,-5.3,-5.299,-5.3062,-5.3078,-5.3058,-5.3074,-5.3082,-5.3213,-5.3233,-5.3278,-5.3288,-5.3298,-5.3318,-5.3319,-5.3515,-5.3517,0,0,0,-5.298,-5.2985,-5.3016,-5.3071,-5.3094,-5.3078,-5.3087,-5.3227,-5.3238,-5.329,-5.33,-5.3319,-5.3321,-5.3514,-5.3516,-5.3551,0,0,0,-5.2975,-5.2973,-5.3013,-5.3008,-5.3092,-5.3162,-5.3098,-5.3229,-5.3244,-5.3299,-5.3319,-5.3323,-5.3513,-5.3515,-5.3547,-5.3567,0,0,0,-5.2958,-5.2971,-5.299,-5.3007,-5.3063,-5.316,-5.3179,-5.3232,-5.3251,-5.3316,-5.3323,-5.3513,-5.3515,-5.3545,-5.3563,-5.3615,0,0,0,-5.2936,-5.3019,-5.299,-5.3088,-5.3062,-5.3182,-5.3178,-5.3269,-5.333,-5.332,-5.3514,-5.3516,-5.3544,-5.356,-5.3612,-5.3654,-5.3672,0,0,-5.3035,-5.3031,-5.3089,-5.3067,-5.319,-5.3163,-5.3292,-5.3357,-5.3373,-5.3468,-5.3473,-5.3549,-5.3563,-5.3614,-5.3781,-5.3795,0,0,0,-5.3117,-5.3158,-5.3193,-5.3251,-5.3304,-5.335,-5.3398,-5.3423,-5.3504,-5.342,-5.3584,-5.3593,-5.3623,-5.3644,-5.3656,-5.3682,-5.3526,-5.3526,-5.3525,-5.3239,-5.3256,-5.3354,-5.3386,-5.3443,-5.3492,-5.3539,-5.3581,-5.3581,-5.362,-5.3646,-5.3746,-5.377,-5.3779,-5.3806,-5.3674,-5.3674,-5.3674,-5.3674,-5.3383,-5.3443,-5.3444,-5.3538,-5.3556,-5.3635,-5.3687,-5.3685,-5.3761,-5.3727,-5.3755,-5.3712,-5.3793,-5.3818,-5.3677,-5.3677,-5.3676,-5.3676,-5.3676,-5.3462,-5.3493,-5.3523,-5.3609,-5.3674,-5.3706,-5.3779,-5.3794,-5.3809,-5.3837,-5.3865,-5.3865,-5.3863,-5.385,-5.3851,-5.3851,-5.3851,-5.3852,-5.3852,-5.3529,-5.3562,-5.3622,-5.3687,-5.3726,-5.3781,-5.3834,-5.3873,-5.3921,-5.3925,-5.3926,-5.3921,-5.38,-5.3766,-5.3857,-5.3856,-5.3856,-5.3855,-5.3855,-5.3661,-5.3635,-5.3726,-5.3766,-5.3844,-5.3907,-5.3928,-5.4007,-5.4043,-5.4078,-5.407,-5.3979,-5.3975,-5.3966,-5.3938,-5.4067,-5.4067,-5.4067,-5.4067,-5.3724,-5.3726,-5.3823,-5.3886,-5.3949,-5.3977,-5.4081,-5.4124,-5.4165,-5.4188,-5.4172,-5.4139,-5.4129,-5.4131,-5.4118,-5.4092,-5.4258,-5.4258,-5.4258,-5.3806,-5.3814,-5.3898,-5.3937,-5.4001,-5.4054,-5.4152,-5.4224,-5.4265,-5.4266,-5.4205,-5.4197,-5.4143,-5.4126,-5.4119,-5.4099,-5.4052,0,0]},{"header":{"parameterUnit":"m.s-1","parameterCategory":1,"la1":30.2992,"la2":30.254,"lo1":-89.0895,"lo2":-89.0443,"dy":0.0025,"dx":0.0025,"nx":19,"ny":19,"refTime":"2026-03-30T03:00:00:Z","depth":0,"parameterNumber":3,"parameterNumberName":"V-component_of_WINDS"},"data":[0,0,0,3.7292,3.7293,3.7344,3.7344,3.7396,3.7397,0,0,0,0,0,0,0,0,0,0,0,3.7269,3.7269,3.7292,3.7293,3.7344,3.7344,3.7396,3.7397,0,0,0,0,0,0,0,0,0,0,0,3.7269,3.7269,3.7269,3.7293,3.7344,3.7344,3.7396,3.7362,0,0,0,0,0,0,0,0,0,0,3.7314,3.7286,3.7269,3.7269,3.7293,3.7344,3.7344,3.7361,3.7364,3.7367,0,3.7369,0,3.7384,3.7399,3.7399,0,0,0,3.7298,3.7283,3.7304,3.7269,3.7294,3.7344,3.7322,3.7363,3.7367,3.7372,3.737,3.7372,3.7385,3.7399,3.74,3.7405,3.7405,0,0,3.7295,3.7274,3.7301,3.7306,3.7299,3.7321,3.7324,3.7365,3.7361,3.737,3.7374,3.7385,3.74,3.74,3.7405,3.7405,0,0,0,3.7284,3.7271,3.7292,3.7304,3.7314,3.7322,3.7326,3.7359,3.7368,3.7374,3.7386,3.74,3.74,3.7406,3.7405,3.7375,0,0,0,3.7282,3.7265,3.729,3.7278,3.7313,3.7337,3.7318,3.7365,3.737,3.7386,3.74,3.7401,3.7406,3.7406,3.7376,3.7364,0,0,0,3.7268,3.7263,3.7268,3.7276,3.7298,3.7337,3.7348,3.7367,3.7377,3.7399,3.7401,3.7406,3.7406,3.7378,3.7366,3.736,0,0,0,3.7247,3.7239,3.7267,3.7263,3.7297,3.7318,3.7348,3.7365,3.738,3.74,3.7406,3.7405,3.7378,3.7367,3.7361,3.7352,3.7346,0,0,3.7224,3.7235,3.7234,3.7262,3.7273,3.7312,3.7319,3.7352,3.7373,3.7393,3.7394,3.7376,3.7366,3.736,3.7319,3.7314,0,0,0,3.722,3.7219,3.7227,3.7242,3.7269,3.7291,3.7326,3.7339,3.7357,3.7379,3.7373,3.7367,3.7365,3.7361,3.7357,3.7357,3.7403,3.7403,3.7403,3.7157,3.7186,3.7187,3.7223,3.7237,3.7275,3.7289,3.7313,3.7336,3.7334,3.734,3.7312,3.7307,3.7304,3.7303,3.7337,3.7337,3.7337,3.7337,3.7127,3.7131,3.7166,3.7179,3.721,3.7222,3.7258,3.7275,3.729,3.7309,3.7308,3.7326,3.7297,3.7298,3.7335,3.7335,3.7336,3.7336,3.7336,3.7089,3.7096,3.7114,3.714,3.7157,3.7194,3.7207,3.7235,3.726,3.7259,3.7269,3.727,3.7274,3.7262,3.7262,3.7262,3.7262,3.7262,3.7262,3.7043,3.7064,3.7073,3.7103,3.7117,3.7139,3.7179,3.7194,3.7217,3.7235,3.7236,3.726,3.7289,3.7296,3.726,3.7261,3.7261,3.7261,3.7261,3.7002,3.7017,3.703,3.7045,3.7084,3.71,3.7135,3.7163,3.7179,3.7185,3.7211,3.7228,3.724,3.7243,3.7249,3.7204,3.7204,3.7204,3.7204,3.697,3.698,3.7002,3.7024,3.7049,3.7083,3.7098,3.713,3.7164,3.7176,3.7186,3.7197,3.7199,3.721,3.7214,3.722,3.7168,3.7168,3.7168,3.6948,3.6962,3.6969,3.7005,3.7038,3.7066,3.7081,3.7105,3.7146,3.7168,3.7186,3.7187,3.7204,3.7208,3.7229,3.7235,3.7247,0,0]}]]